Time,TemperatureF,DewpointF,PressureIn,WindDirection,WindDirectionDegrees,WindSpeedMPH,WindSpeedGustMPH,Humidity,HourlyPrecipIn,Conditions,Clouds,dailyrainin,SoftwareType,DateUTC
2013-02-07 00:00:00,63.5,59.5,30.09,NE,45,0.0,8.0,87,0.00,,,0.00,meteohub,2013-02-07 05:00:00,
2013-02-07 00:02:00,63.5,59.5,30.08,NE,45,0.0,0.0,87,0.00,,,0.00,meteohub,2013-02-07 05:02:00,
2013-02-07 00:07:00,63.1,59.5,30.08,NE,45,0.0,0.0,88,0.00,,,0.00,meteohub,2013-02-07 05:07:00,
2013-02-07 00:13:00,63.0,59.4,30.08,NE,45,2.0,0.0,88,0.00,,,0.00,meteohub,2013-02-07 05:13:00,
2013-02-07 00:18:00,62.8,59.5,30.08,NE,45,1.0,2.0,89,0.00,,,0.00,meteohub,2013-02-07 05:18:00,
2013-02-07 00:23:00,62.8,59.5,30.08,North,0,1.0,2.0,89,0.00,,,0.00,meteohub,2013-02-07 05:23:00,
2013-02-07 00:28:00,63.0,59.7,30.08,North,0,1.0,2.0,89,0.00,,,0.00,meteohub,2013-02-07 05:28:00,
2013-02-07 00:33:00,63.3,59.7,30.08,North,0,1.0,3.0,88,0.00,,,0.00,meteohub,2013-02-07 05:33:00,
2013-02-07 00:38:00,63.7,59.7,30.08,NE,45,1.0,4.0,87,0.00,,,0.00,meteohub,2013-02-07 05:38:00,
2013-02-07 00:43:00,63.7,59.7,30.08,North,0,2.0,4.0,87,0.00,,,0.00,meteohub,2013-02-07 05:43:00,
2013-02-07 00:48:00,63.9,59.9,30.07,North,0,2.0,4.0,87,0.00,,,0.00,meteohub,2013-02-07 05:48:00,
2013-02-07 00:53:00,64.0,60.1,30.07,NE,45,1.0,2.0,87,0.00,,,0.00,meteohub,2013-02-07 05:53:00,
2013-02-07 00:59:00,63.9,59.5,30.08,NE,45,0.0,2.0,86,0.00,,,0.00,meteohub,2013-02-07 05:59:00,
2013-02-07 01:04:00,63.9,59.5,30.07,NE,45,0.0,2.0,86,0.00,,,0.00,meteohub,2013-02-07 06:04:00,
2013-02-07 01:09:00,63.3,59.0,30.08,NE,45,0.0,2.0,86,0.00,,,0.00,meteohub,2013-02-07 06:09:00,
2013-02-07 01:14:00,63.0,59.0,30.08,NE,45,0.0,1.0,87,0.00,,,0.00,meteohub,2013-02-07 06:14:00,
2013-02-07 01:19:00,62.8,59.2,30.07,North,0,2.0,0.0,88,0.00,,,0.00,meteohub,2013-02-07 06:19:00,
2013-02-07 01:24:00,63.1,59.9,30.07,NE,45,2.0,0.0,89,0.00,,,0.00,meteohub,2013-02-07 06:24:00,
2013-02-07 01:29:00,63.3,60.3,30.07,NE,45,1.0,2.0,90,0.00,,,0.00,meteohub,2013-02-07 06:29:00,
2013-02-07 01:34:00,63.7,61.0,30.07,North,0,2.0,2.0,91,0.00,,,0.00,meteohub,2013-02-07 06:34:00,
2013-02-07 01:40:00,64.0,61.3,30.07,North,0,2.0,2.0,91,0.00,,,0.00,meteohub,2013-02-07 06:40:00,
2013-02-07 01:45:00,64.4,61.7,30.07,NE,45,2.0,4.0,91,0.00,,,0.00,meteohub,2013-02-07 06:45:00,
2013-02-07 01:50:00,64.8,62.1,30.07,North,0,3.0,4.0,91,0.00,,,0.00,meteohub,2013-02-07 06:50:00,
2013-02-07 01:55:00,64.8,61.7,30.08,NE,45,2.0,4.0,90,0.00,,,0.00,meteohub,2013-02-07 06:55:00,
2013-02-07 02:00:00,64.8,61.7,30.07,North,0,1.0,4.0,90,0.00,,,0.00,meteohub,2013-02-07 07:00:00,
2013-02-07 02:05:00,64.8,61.7,30.07,North,0,1.0,3.0,90,0.00,,,0.00,meteohub,2013-02-07 07:05:00,
2013-02-07 02:10:00,64.8,62.1,30.07,North,0,2.0,3.0,91,0.00,,,0.00,meteohub,2013-02-07 07:10:00,
2013-02-07 02:15:00,64.8,62.1,30.07,NE,45,2.0,3.0,91,0.00,,,0.00,meteohub,2013-02-07 07:15:00,
2013-02-07 02:21:00,64.9,62.2,30.06,NE,45,2.0,4.0,91,0.00,,,0.00,meteohub,2013-02-07 07:21:00,
2013-02-07 02:26:00,64.9,62.2,30.06,NE,45,2.0,4.0,91,0.00,,,0.00,meteohub,2013-02-07 07:26:00,
2013-02-07 02:31:00,64.8,62.1,30.06,NE,45,3.0,4.0,91,0.00,,,0.00,meteohub,2013-02-07 07:31:00,
2013-02-07 02:36:00,64.9,62.6,30.06,NE,45,2.0,3.0,92,0.00,,,0.00,meteohub,2013-02-07 07:36:00,
2013-02-07 02:41:00,64.8,62.4,30.06,NE,45,2.0,3.0,92,0.00,,,0.00,meteohub,2013-02-07 07:41:00,
2013-02-07 02:46:00,64.8,62.4,30.05,NE,45,2.0,3.0,92,0.00,,,0.00,meteohub,2013-02-07 07:46:00,
2013-02-07 02:51:00,64.8,62.4,30.05,North,0,3.0,3.0,92,0.00,,,0.00,meteohub,2013-02-07 07:51:00,
2013-02-07 02:57:00,64.8,62.6,30.04,East,90,2.0,3.0,93,0.00,,,0.00,meteohub,2013-02-07 07:57:00,
2013-02-07 03:02:00,64.8,62.6,30.05,NE,45,3.0,4.0,93,0.00,,,0.00,meteohub,2013-02-07 08:02:00,
2013-02-07 03:07:00,64.8,62.6,30.05,NE,45,3.0,4.0,93,0.00,,,0.00,meteohub,2013-02-07 08:07:00,
2013-02-07 03:12:00,64.6,62.4,30.04,NE,45,2.0,3.0,93,0.00,,,0.00,meteohub,2013-02-07 08:12:00,
2013-02-07 03:17:00,64.6,62.8,30.05,NE,45,2.0,3.0,94,0.00,,,0.00,meteohub,2013-02-07 08:17:00,
2013-02-07 03:22:00,64.4,62.6,30.05,NE,45,2.0,3.0,94,0.00,,,0.00,meteohub,2013-02-07 08:22:00,
2013-02-07 03:27:00,64.4,62.6,30.05,NE,45,2.0,3.0,94,0.00,,,0.00,meteohub,2013-02-07 08:27:00,
2013-02-07 03:32:00,64.2,62.4,30.05,NE,45,1.0,3.0,94,0.00,,,0.00,meteohub,2013-02-07 08:32:00,
2013-02-07 03:37:00,64.2,62.4,30.05,NE,45,2.0,3.0,94,0.00,,,0.00,meteohub,2013-02-07 08:37:00,
2013-02-07 03:42:00,64.0,62.2,30.04,NE,45,2.0,3.0,94,0.00,,,0.00,meteohub,2013-02-07 08:42:00,
2013-02-07 03:47:00,64.0,62.2,30.05,NE,45,1.0,2.0,94,0.00,,,0.00,meteohub,2013-02-07 08:47:00,
2013-02-07 03:52:00,64.0,62.2,30.06,NE,45,2.0,2.0,94,0.00,,,0.00,meteohub,2013-02-07 08:52:00,
2013-02-07 03:57:00,64.0,62.2,30.05,North,0,3.0,3.0,94,0.00,,,0.00,meteohub,2013-02-07 08:57:00,
2013-02-07 04:02:00,64.0,62.2,30.04,North,0,4.0,4.0,94,0.00,,,0.00,meteohub,2013-02-07 09:02:00,
2013-02-07 04:07:00,64.0,62.2,30.05,North,0,4.0,4.0,94,0.00,,,0.00,meteohub,2013-02-07 09:07:00,
2013-02-07 04:12:00,64.2,62.4,30.05,NE,45,2.0,4.0,94,0.00,,,0.00,meteohub,2013-02-07 09:12:00,
2013-02-07 04:17:00,64.0,62.2,30.05,NE,45,1.0,4.0,94,0.00,,,0.00,meteohub,2013-02-07 09:17:00,
2013-02-07 04:22:00,64.0,62.2,30.05,NE,45,0.0,4.0,94,0.00,,,0.00,meteohub,2013-02-07 09:22:00,
2013-02-07 04:27:00,63.9,62.1,30.04,NE,45,2.0,2.0,94,0.00,,,0.00,meteohub,2013-02-07 09:27:00,
2013-02-07 04:32:00,63.7,61.9,30.04,NE,45,0.0,2.0,94,0.00,,,0.00,meteohub,2013-02-07 09:32:00,
2013-02-07 04:37:00,63.5,61.7,30.04,NE,45,0.0,2.0,94,0.00,,,0.00,meteohub,2013-02-07 09:37:00,
2013-02-07 04:42:00,63.3,61.5,30.05,NE,45,0.0,2.0,94,0.00,,,0.00,meteohub,2013-02-07 09:42:00,
2013-02-07 04:47:00,63.0,61.2,30.06,NE,45,0.0,1.0,94,0.00,,,0.00,meteohub,2013-02-07 09:47:00,
2013-02-07 04:52:00,62.8,61.3,30.06,North,0,2.0,0.0,95,0.00,,,0.00,meteohub,2013-02-07 09:52:00,
2013-02-07 04:57:00,62.8,61.3,30.05,North,0,1.0,2.0,95,0.00,,,0.00,meteohub,2013-02-07 09:57:00,
2013-02-07 05:02:00,62.6,61.2,30.06,North,0,2.0,2.0,95,0.00,,,0.00,meteohub,2013-02-07 10:02:00,
2013-02-07 05:07:00,62.4,61.0,30.06,North,0,1.0,2.0,95,0.00,,,0.00,meteohub,2013-02-07 10:07:00,
2013-02-07 05:12:00,62.2,61.2,30.05,NE,45,1.0,2.0,96,0.00,,,0.00,meteohub,2013-02-07 10:12:00,
2013-02-07 05:17:00,62.2,61.2,30.05,NE,45,0.0,2.0,96,0.00,,,0.00,meteohub,2013-02-07 10:17:00,
2013-02-07 05:22:00,62.2,61.2,30.05,NE,45,0.0,2.0,96,0.00,,,0.00,meteohub,2013-02-07 10:22:00,
2013-02-07 05:27:00,61.9,60.8,30.05,NE,45,2.0,2.0,96,0.00,,,0.00,meteohub,2013-02-07 10:27:00,
2013-02-07 05:32:00,62.1,61.2,30.06,SW,225,1.0,2.0,97,0.00,,,0.00,meteohub,2013-02-07 10:32:00,
2013-02-07 05:37:00,62.1,61.2,30.05,NE,45,1.0,2.0,97,0.00,,,0.00,meteohub,2013-02-07 10:37:00,
2013-02-07 05:42:00,62.1,61.2,30.06,NE,45,1.0,2.0,97,0.00,,,0.00,meteohub,2013-02-07 10:42:00,
2013-02-07 05:47:00,62.1,61.5,30.06,NE,45,1.0,2.0,98,0.00,,,0.00,meteohub,2013-02-07 10:47:00,
2013-02-07 05:52:00,62.2,61.7,30.06,NE,45,2.0,2.0,98,0.00,,,0.00,meteohub,2013-02-07 10:52:00,
2013-02-07 05:57:00,62.4,61.9,30.06,NE,45,1.0,2.0,98,0.00,,,0.00,meteohub,2013-02-07 10:57:00,
2013-02-07 06:02:00,62.4,61.9,30.06,North,0,2.0,2.0,98,0.00,,,0.00,meteohub,2013-02-07 11:02:00,
2013-02-07 06:07:00,62.4,61.9,30.06,North,0,2.0,2.0,98,0.00,,,0.00,meteohub,2013-02-07 11:07:00,
2013-02-07 06:12:00,62.8,62.4,30.06,NE,45,2.0,2.0,99,0.00,,,0.00,meteohub,2013-02-07 11:12:00,
2013-02-07 06:17:00,62.8,62.4,30.06,SE,135,2.0,2.0,99,0.00,,,0.00,meteohub,2013-02-07 11:17:00,
2013-02-07 06:22:00,62.8,62.4,30.06,East,90,1.0,2.0,99,0.00,,,0.00,meteohub,2013-02-07 11:22:00,
2013-02-07 06:27:00,63.0,62.6,30.06,NW,315,2.0,2.0,99,0.00,,,0.00,meteohub,2013-02-07 11:27:00,
2013-02-07 06:32:00,63.0,62.6,30.06,NE,45,2.0,3.0,99,0.00,,,0.00,meteohub,2013-02-07 11:32:00,
2013-02-07 06:37:00,63.0,62.6,30.06,North,0,2.0,3.0,99,0.00,,,0.00,meteohub,2013-02-07 11:37:00,
2013-02-07 06:42:00,63.0,62.6,30.07,NW,315,1.0,3.0,99,0.00,,,0.00,meteohub,2013-02-07 11:42:00,
2013-02-07 06:47:00,63.1,62.8,30.07,North,0,1.0,3.0,99,0.00,,,0.00,meteohub,2013-02-07 11:47:00,
2013-02-07 06:52:00,63.0,62.6,30.07,NE,45,2.0,2.0,99,0.00,,,0.00,meteohub,2013-02-07 11:52:00,
2013-02-07 06:57:00,63.0,62.6,30.07,NE,45,2.0,3.0,99,0.00,,,0.00,meteohub,2013-02-07 11:57:00,
2013-02-07 07:02:00,63.0,62.6,30.06,NE,45,1.0,3.0,99,0.00,,,0.00,meteohub,2013-02-07 12:02:00,
2013-02-07 07:07:00,63.0,62.6,30.06,NE,45,2.0,3.0,99,0.00,,,0.00,meteohub,2013-02-07 12:07:00,
2013-02-07 07:13:00,63.1,62.8,30.06,North,0,2.0,2.0,99,0.00,,,0.00,meteohub,2013-02-07 12:13:00,
2013-02-07 07:18:00,63.1,62.8,30.06,NE,45,2.0,3.0,99,0.00,,,0.00,meteohub,2013-02-07 12:18:00,
2013-02-07 07:23:00,63.3,63.0,30.07,NE,45,0.0,3.0,99,0.00,,,0.00,meteohub,2013-02-07 12:23:00,
2013-02-07 07:28:00,63.3,63.0,30.07,NE,45,1.0,3.0,99,0.00,,,0.00,meteohub,2013-02-07 12:28:00,
2013-02-07 07:33:00,63.3,63.0,30.07,North,0,2.0,3.0,99,0.00,,,0.00,meteohub,2013-02-07 12:33:00,
2013-02-07 07:38:00,63.5,63.1,30.07,NE,45,2.0,3.0,99,0.00,,,0.00,meteohub,2013-02-07 12:38:00,
2013-02-07 07:43:00,63.7,63.3,30.07,NE,45,2.0,3.0,99,0.00,,,0.00,meteohub,2013-02-07 12:43:00,
2013-02-07 07:48:00,63.9,63.5,30.07,North,0,2.0,3.0,99,0.00,,,0.00,meteohub,2013-02-07 12:48:00,
2013-02-07 07:53:00,64.0,63.7,30.07,NW,315,2.0,3.0,99,0.00,,,0.00,meteohub,2013-02-07 12:53:00,
2013-02-07 07:59:00,64.2,63.9,30.07,East,90,3.0,3.0,99,0.00,,,0.00,meteohub,2013-02-07 12:59:00,
2013-02-07 08:04:00,64.2,63.9,30.07,NE,45,3.0,5.0,99,0.00,,,0.00,meteohub,2013-02-07 13:04:00,
2013-02-07 08:09:00,64.6,64.0,30.07,NE,45,2.0,5.0,98,0.00,,,0.00,meteohub,2013-02-07 13:09:00,
2013-02-07 08:14:00,64.6,64.0,30.06,North,0,2.0,5.0,98,0.00,,,0.00,meteohub,2013-02-07 13:14:00,
2013-02-07 08:19:00,64.8,64.2,30.06,NE,45,2.0,3.0,98,0.00,,,0.00,meteohub,2013-02-07 13:19:00,
2013-02-07 08:24:00,65.1,64.0,30.06,NNW,338,4.0,4.0,96,0.00,,,0.00,meteohub,2013-02-07 13:24:00,
2013-02-07 08:29:00,65.3,64.0,30.06,North,0,3.0,5.0,96,0.00,,,0.00,meteohub,2013-02-07 13:29:00,
2013-02-07 08:34:00,65.5,64.0,30.06,North,0,4.0,5.0,95,0.00,,,0.00,meteohub,2013-02-07 13:34:00,
2013-02-07 08:39:00,65.8,64.0,30.06,NE,45,4.0,6.0,94,0.00,,,0.00,meteohub,2013-02-07 13:39:00,
2013-02-07 08:45:00,66.2,64.0,30.07,North,0,4.0,6.0,93,0.00,,,0.00,meteohub,2013-02-07 13:45:00,
2013-02-07 08:50:00,67.3,64.9,30.07,NE,45,4.0,6.0,92,0.00,,,0.00,meteohub,2013-02-07 13:50:00,
2013-02-07 08:55:00,67.8,64.8,30.07,NE,45,2.0,6.0,90,0.00,,,0.00,meteohub,2013-02-07 13:55:00,
2013-02-07 09:00:00,68.2,64.8,30.06,NE,45,3.0,7.0,89,0.00,,,0.00,meteohub,2013-02-07 14:00:00,
2013-02-07 09:05:00,68.2,64.8,30.06,NE,45,3.0,7.0,89,0.00,,,0.00,meteohub,2013-02-07 14:05:00,
2013-02-07 09:10:00,69.1,65.1,30.06,North,0,4.0,7.0,87,0.00,,,0.00,meteohub,2013-02-07 14:10:00,
2013-02-07 09:15:00,70.3,65.3,30.07,North,0,6.0,6.0,84,0.00,,,0.00,meteohub,2013-02-07 14:15:00,
2013-02-07 09:20:00,71.4,64.9,30.08,North,0,6.0,8.0,80,0.00,,,0.00,meteohub,2013-02-07 14:20:00,
2013-02-07 09:25:00,72.1,65.3,30.08,NE,45,4.0,8.0,79,0.00,,,0.00,meteohub,2013-02-07 14:25:00,
2013-02-07 09:30:00,71.6,64.4,30.08,South,180,3.0,8.0,78,0.00,,,0.00,meteohub,2013-02-07 14:30:00,
2013-02-07 09:35:00,70.7,63.9,30.07,NE,45,8.0,8.0,79,0.00,,,0.00,meteohub,2013-02-07 14:35:00,
2013-02-07 09:40:00,71.6,64.8,30.07,NE,45,8.0,8.0,79,0.00,,,0.00,meteohub,2013-02-07 14:40:00,
2013-02-07 09:46:00,72.3,64.8,30.07,SE,135,8.0,10.0,77,0.00,,,0.00,meteohub,2013-02-07 14:46:00,
2013-02-07 09:51:00,72.7,64.8,30.07,NE,45,4.0,10.0,76,0.00,,,0.00,meteohub,2013-02-07 14:51:00,
2013-02-07 09:56:00,73.2,64.8,30.06,North,0,4.0,10.0,75,0.00,,,0.00,meteohub,2013-02-07 14:56:00,
2013-02-07 10:01:00,74.3,65.1,30.07,North,0,5.0,10.0,73,0.00,,,0.00,meteohub,2013-02-07 15:01:00,
2013-02-07 10:06:00,75.7,64.4,30.07,NE,45,10.0,10.0,68,0.00,,,0.00,meteohub,2013-02-07 15:06:00,
2013-02-07 10:11:00,75.6,64.2,30.06,East,90,5.0,10.0,68,0.00,,,0.00,meteohub,2013-02-07 15:11:00,
2013-02-07 10:17:00,76.1,63.5,30.06,East,90,11.0,11.0,65,0.00,,,0.00,meteohub,2013-02-07 15:17:00,
2013-02-07 10:22:00,75.6,63.3,30.07,North,0,9.0,11.0,66,0.00,,,0.00,meteohub,2013-02-07 15:22:00,
2013-02-07 10:27:00,75.4,63.1,30.06,NE,45,11.0,11.0,66,0.00,,,0.00,meteohub,2013-02-07 15:27:00,
2013-02-07 10:32:00,76.6,63.5,30.06,East,90,9.0,12.0,64,0.00,,,0.00,meteohub,2013-02-07 15:32:00,
2013-02-07 10:37:00,77.0,63.5,30.05,NE,45,8.0,12.0,63,0.00,,,0.00,meteohub,2013-02-07 15:37:00,
2013-02-07 10:42:00,77.5,62.6,30.04,NE,45,8.0,12.0,60,0.00,,,0.00,meteohub,2013-02-07 15:42:00,
2013-02-07 10:47:00,77.9,63.9,30.05,East,90,4.0,12.0,62,0.00,,,0.00,meteohub,2013-02-07 15:47:00,
2013-02-07 10:52:00,78.6,62.6,30.04,NE,45,10.0,12.0,58,0.00,,,0.00,meteohub,2013-02-07 15:52:00,
2013-02-07 10:57:00,78.1,62.6,30.04,West,270,7.0,11.0,59,0.00,,,0.00,meteohub,2013-02-07 15:57:00,
2013-02-07 11:02:00,77.5,62.1,30.04,East,90,8.0,11.0,59,0.00,,,0.00,meteohub,2013-02-07 16:02:00,
2013-02-07 11:07:00,77.5,61.5,30.04,NE,45,11.0,11.0,58,0.00,,,0.00,meteohub,2013-02-07 16:07:00,
2013-02-07 11:12:00,77.2,62.2,30.04,East,90,7.0,15.0,60,0.00,,,0.00,meteohub,2013-02-07 16:12:00,
2013-02-07 11:17:00,77.2,61.7,30.04,NE,45,14.0,15.0,59,0.00,,,0.00,meteohub,2013-02-07 16:17:00,
2013-02-07 11:22:00,78.3,61.7,30.04,NE,45,10.0,15.0,57,0.00,,,0.00,meteohub,2013-02-07 16:22:00,
2013-02-07 11:27:00,79.0,61.5,30.02,North,0,6.0,14.0,55,0.00,,,0.00,meteohub,2013-02-07 16:27:00,
2013-02-07 11:32:00,79.3,60.8,30.02,SW,225,10.0,14.0,53,0.00,,,0.00,meteohub,2013-02-07 16:32:00,
2013-02-07 11:37:00,79.5,60.4,30.03,ENE,68,11.0,14.0,52,0.00,,,0.00,meteohub,2013-02-07 16:37:00,
2013-02-07 11:42:00,79.9,59.0,30.02,SE,135,8.0,14.0,49,0.00,,,0.00,meteohub,2013-02-07 16:42:00,
2013-02-07 11:47:00,79.3,58.5,30.02,East,90,11.0,14.0,49,0.00,,,0.00,meteohub,2013-02-07 16:47:00,
2013-02-07 11:52:00,79.3,57.4,30.01,East,90,15.0,15.0,47,0.00,,,0.00,meteohub,2013-02-07 16:52:00,
2013-02-07 11:57:00,79.0,58.8,30.01,NE,45,7.0,15.0,50,0.00,,,0.00,meteohub,2013-02-07 16:57:00,
2013-02-07 12:02:00,80.1,59.2,30.01,East,90,7.0,15.0,49,0.00,,,0.00,meteohub,2013-02-07 17:02:00,
2013-02-07 12:07:00,79.9,59.0,30.01,SE,135,8.0,15.0,49,0.00,,,0.00,meteohub,2013-02-07 17:07:00,
2013-02-07 12:12:00,79.2,59.5,30.01,East,90,6.0,13.0,51,0.00,,,0.00,meteohub,2013-02-07 17:12:00,
2013-02-07 12:17:00,79.0,59.9,30.01,East,90,9.0,11.0,52,0.00,,,0.00,meteohub,2013-02-07 17:17:00,
2013-02-07 12:22:00,78.6,60.1,30.01,East,90,8.0,11.0,53,0.00,,,0.00,meteohub,2013-02-07 17:22:00,
2013-02-07 12:27:00,79.0,60.4,30.01,North,0,5.0,11.0,53,0.00,,,0.00,meteohub,2013-02-07 17:27:00,
2013-02-07 12:32:00,79.3,60.3,30.00,NE,45,11.0,11.0,52,0.00,,,0.00,meteohub,2013-02-07 17:32:00,
2013-02-07 12:37:00,79.5,60.4,30.00,NE,45,8.0,11.0,52,0.00,,,0.00,meteohub,2013-02-07 17:37:00,
2013-02-07 12:42:00,79.5,60.8,30.00,ESE,113,6.0,12.0,53,0.00,,,0.00,meteohub,2013-02-07 17:42:00,
2013-02-07 12:47:00,81.0,61.2,29.99,SE,135,8.0,14.0,51,0.00,,,0.00,meteohub,2013-02-07 17:47:00,
2013-02-07 12:52:00,81.3,61.0,29.99,East,90,8.0,14.0,50,0.00,,,0.00,meteohub,2013-02-07 17:52:00,
2013-02-07 12:57:00,80.4,61.2,29.99,East,90,9.0,10.0,52,0.00,,,0.00,meteohub,2013-02-07 17:57:00,
2013-02-07 13:02:00,79.5,61.3,29.99,East,90,5.0,13.0,54,0.00,,,0.00,meteohub,2013-02-07 18:02:00,
2013-02-07 13:07:00,78.6,61.5,29.98,North,0,6.0,13.0,56,0.00,,,0.00,meteohub,2013-02-07 18:07:00,
2013-02-07 13:12:00,78.8,62.2,29.98,NE,45,9.0,13.0,57,0.00,,,0.00,meteohub,2013-02-07 18:12:00,
2013-02-07 13:17:00,78.4,62.4,29.98,SE,135,8.0,14.0,58,0.00,,,0.00,meteohub,2013-02-07 18:17:00,
2013-02-07 13:22:00,79.5,63.5,29.97,NE,45,8.0,14.0,58,0.00,,,0.00,meteohub,2013-02-07 18:22:00,
2013-02-07 13:27:00,79.9,62.8,29.97,SE,135,7.0,15.0,56,0.00,,,0.00,meteohub,2013-02-07 18:27:00,
2013-02-07 13:32:00,78.8,62.8,29.97,North,0,15.0,15.0,58,0.00,,,0.00,meteohub,2013-02-07 18:32:00,
2013-02-07 13:37:00,78.6,64.0,29.97,East,90,8.0,15.0,61,0.00,,,0.00,meteohub,2013-02-07 18:37:00,
2013-02-07 13:42:00,79.3,63.7,29.96,NE,45,11.0,15.0,59,0.00,,,0.00,meteohub,2013-02-07 18:42:00,
2013-02-07 13:47:00,79.9,64.2,29.96,WNW,293,6.0,15.0,59,0.00,,,0.00,meteohub,2013-02-07 18:47:00,
2013-02-07 13:52:00,79.5,63.9,29.96,East,90,9.0,13.0,59,0.00,,,0.00,meteohub,2013-02-07 18:52:00,
2013-02-07 13:57:00,79.5,63.9,29.95,East,90,15.0,16.0,59,0.00,,,0.00,meteohub,2013-02-07 18:57:00,
2013-02-07 14:02:00,79.2,64.0,29.94,NE,45,8.0,16.0,60,0.00,,,0.00,meteohub,2013-02-07 19:02:00,
2013-02-07 14:07:00,79.3,64.2,29.95,North,0,11.0,16.0,60,0.00,,,0.00,meteohub,2013-02-07 19:07:00,
2013-02-07 14:12:00,79.5,64.4,29.94,NE,45,8.0,15.0,60,0.00,,,0.00,meteohub,2013-02-07 19:12:00,
2013-02-07 14:17:00,79.7,64.0,29.94,East,90,8.0,14.0,59,0.00,,,0.00,meteohub,2013-02-07 19:17:00,
2013-02-07 14:23:00,79.2,64.6,29.93,East,90,10.0,15.0,61,0.00,,,0.00,meteohub,2013-02-07 19:23:00,
2013-02-07 14:28:00,79.7,64.6,29.93,SE,135,6.0,15.0,60,0.00,,,0.00,meteohub,2013-02-07 19:28:00,
2013-02-07 14:33:00,79.7,64.6,29.92,NE,45,11.0,15.0,60,0.00,,,0.00,meteohub,2013-02-07 19:33:00,
2013-02-07 14:38:00,80.2,65.5,29.93,NE,45,4.0,15.0,61,0.00,,,0.00,meteohub,2013-02-07 19:38:00,
2013-02-07 14:43:00,80.2,64.6,29.94,NNE,23,11.0,13.0,59,0.00,,,0.00,meteohub,2013-02-07 19:43:00,
2013-02-07 14:48:00,79.0,64.4,29.93,East,90,9.0,15.0,61,0.00,,,0.00,meteohub,2013-02-07 19:48:00,
2013-02-07 14:53:00,77.7,64.9,29.93,North,0,15.0,15.0,65,0.00,,,0.00,meteohub,2013-02-07 19:53:00,
2013-02-07 14:58:00,77.9,65.1,29.93,East,90,8.0,15.0,65,0.00,,,0.00,meteohub,2013-02-07 19:58:00,
2013-02-07 15:03:00,79.0,64.8,29.93,East,90,9.0,15.0,62,0.00,,,0.00,meteohub,2013-02-07 20:03:00,
2013-02-07 15:08:00,79.5,64.9,29.92,NE,45,6.0,16.0,61,0.00,,,0.00,meteohub,2013-02-07 20:08:00,
2013-02-07 15:13:00,78.8,64.8,29.92,East,90,9.0,16.0,62,0.00,,,0.00,meteohub,2013-02-07 20:13:00,
2013-02-07 15:19:00,78.3,65.1,29.92,NE,45,14.0,16.0,64,0.00,,,0.00,meteohub,2013-02-07 20:19:00,
2013-02-07 15:24:00,78.3,65.1,29.93,East,90,13.0,15.0,64,0.00,,,0.00,meteohub,2013-02-07 20:24:00,
2013-02-07 15:29:00,77.9,64.8,29.93,East,90,5.0,15.0,64,0.00,,,0.00,meteohub,2013-02-07 20:29:00,
2013-02-07 15:34:00,77.0,65.1,29.93,NE,45,6.0,15.0,67,0.00,,,0.00,meteohub,2013-02-07 20:34:00,
2013-02-07 15:39:00,76.5,65.1,29.92,North,0,9.0,13.0,68,0.00,,,0.00,meteohub,2013-02-07 20:39:00,
2013-02-07 15:44:00,75.7,65.3,29.93,South,180,6.0,12.0,70,0.00,,,0.00,meteohub,2013-02-07 20:44:00,
2013-02-07 15:49:00,75.4,64.9,29.93,NE,45,10.0,12.0,70,0.00,,,0.00,meteohub,2013-02-07 20:49:00,
2013-02-07 15:54:00,75.2,64.8,29.93,SE,135,6.0,12.0,70,0.00,,,0.00,meteohub,2013-02-07 20:54:00,
2013-02-07 15:59:00,74.7,65.1,29.94,East,90,5.0,12.0,72,0.00,,,0.00,meteohub,2013-02-07 20:59:00,
2013-02-07 16:05:00,74.5,65.3,29.95,SE,135,4.0,11.0,73,0.00,,,0.00,meteohub,2013-02-07 21:05:00,
2013-02-07 16:10:00,74.3,65.1,29.95,East,90,4.0,11.0,73,0.00,,,0.00,meteohub,2013-02-07 21:10:00,
2013-02-07 16:15:00,74.1,64.9,29.94,North,0,6.0,14.0,73,0.00,,,0.00,meteohub,2013-02-07 21:15:00,
2013-02-07 16:20:00,74.1,65.7,29.95,East,90,6.0,8.0,75,0.00,,,0.00,meteohub,2013-02-07 21:20:00,
2013-02-07 16:25:00,73.4,64.9,29.93,East,90,13.0,13.0,75,0.00,,,0.00,meteohub,2013-02-07 21:25:00,
2013-02-07 16:30:00,73.2,65.1,29.92,East,90,5.0,13.0,76,0.00,,,0.00,meteohub,2013-02-07 21:30:00,
2013-02-07 16:35:00,72.9,65.3,29.92,NE,45,6.0,13.0,77,0.00,,,0.00,meteohub,2013-02-07 21:35:00,
2013-02-07 16:40:00,72.7,65.5,29.94,East,90,5.0,13.0,78,0.00,,,0.00,meteohub,2013-02-07 21:40:00,
2013-02-07 16:46:00,72.5,65.3,29.95,NE,45,7.0,11.0,78,0.00,,,0.00,meteohub,2013-02-07 21:46:00,
2013-02-07 16:51:00,72.5,65.3,29.95,SE,135,5.0,10.0,78,0.00,,,0.00,meteohub,2013-02-07 21:51:00,
2013-02-07 16:56:00,72.5,65.3,29.96,NE,45,8.0,8.0,78,0.00,,,0.00,meteohub,2013-02-07 21:56:00,
2013-02-07 17:01:00,72.5,65.3,29.96,NE,45,6.0,9.0,78,0.00,,,0.00,meteohub,2013-02-07 22:01:00,
2013-02-07 17:06:00,72.3,65.5,29.96,NE,45,8.0,9.0,79,0.00,,,0.00,meteohub,2013-02-07 22:06:00,
2013-02-07 17:11:00,72.1,65.7,29.95,NE,45,4.0,9.0,80,0.00,,,0.00,meteohub,2013-02-07 22:11:00,
2013-02-07 17:16:00,71.8,65.7,29.94,NE,45,4.0,9.0,81,0.00,,,0.00,meteohub,2013-02-07 22:16:00,
2013-02-07 17:21:00,71.2,66.2,29.94,East,90,5.0,9.0,84,0.00,,,0.00,meteohub,2013-02-07 22:21:00,
2013-02-07 17:26:00,71.1,66.0,29.93,NE,45,7.0,9.0,84,0.01,,,0.00,meteohub,2013-02-07 22:26:00,
2013-02-07 17:31:00,70.3,66.2,29.94,East,90,9.0,9.0,87,0.01,,,0.01,meteohub,2013-02-07 22:31:00,
2013-02-07 17:37:00,70.3,66.6,29.93,East,90,9.0,9.0,88,0.01,,,0.01,meteohub,2013-02-07 22:37:00,
2013-02-07 17:42:00,70.2,66.4,29.93,South,180,4.0,9.0,88,0.01,,,0.01,meteohub,2013-02-07 22:42:00,
2013-02-07 17:47:00,70.3,66.6,29.93,NE,45,7.0,9.0,88,0.01,,,0.01,meteohub,2013-02-07 22:47:00,
2013-02-07 17:52:00,70.3,66.6,29.94,NE,45,8.0,9.0,88,0.01,,,0.01,meteohub,2013-02-07 22:52:00,
2013-02-07 17:57:00,70.3,66.6,29.95,NE,45,6.0,8.0,88,0.01,,,0.01,meteohub,2013-02-07 22:57:00,
2013-02-07 18:02:00,70.3,66.6,29.94,NE,45,6.0,8.0,88,0.01,,,0.01,meteohub,2013-02-07 23:02:00,
2013-02-07 18:07:00,70.3,66.6,29.93,NE,45,5.0,9.0,88,0.01,,,0.01,meteohub,2013-02-07 23:07:00,
2013-02-07 18:12:00,70.3,66.6,29.92,East,90,8.0,9.0,88,0.01,,,0.01,meteohub,2013-02-07 23:12:00,
2013-02-07 18:17:00,70.2,66.4,29.92,East,90,7.0,9.0,88,0.01,,,0.01,meteohub,2013-02-07 23:17:00,
2013-02-07 18:22:00,70.2,66.4,29.91,SE,135,4.0,12.0,88,0.01,,,0.01,meteohub,2013-02-07 23:22:00,
2013-02-07 18:27:00,70.0,66.6,29.93,SE,135,3.0,13.0,89,0.00,,,0.01,meteohub,2013-02-07 23:27:00,
2013-02-07 18:32:00,70.0,66.6,29.92,NE,45,5.0,13.0,89,0.00,,,0.01,meteohub,2013-02-07 23:32:00,
2013-02-07 18:37:00,70.0,66.9,29.91,East,90,8.0,13.0,90,0.00,,,0.01,meteohub,2013-02-07 23:37:00,
2013-02-07 18:42:00,70.0,66.9,29.91,SE,135,5.0,10.0,90,0.00,,,0.01,meteohub,2013-02-07 23:42:00,
2013-02-07 18:47:00,70.2,67.1,29.89,SE,135,8.0,10.0,90,0.00,,,0.01,meteohub,2013-02-07 23:47:00,
2013-02-07 18:52:00,70.3,67.3,29.89,SE,135,6.0,10.0,90,0.00,,,0.01,meteohub,2013-02-07 23:52:00,
2013-02-07 18:57:00,70.5,67.1,29.89,North,0,11.0,11.0,89,0.00,,,0.01,meteohub,2013-02-07 23:57:00,
2013-02-07 19:02:00,70.5,67.1,29.89,North,0,11.0,11.0,89,0.00,,,0.01,meteohub,2013-02-08 00:02:00,
2013-02-07 19:07:00,71.1,66.9,29.90,ENE,68,5.0,11.0,87,0.00,,,0.01,meteohub,2013-02-08 00:07:00,
2013-02-07 19:12:00,71.2,67.1,29.90,North,0,8.0,11.0,87,0.00,,,0.01,meteohub,2013-02-08 00:12:00,
2013-02-07 19:17:00,71.2,67.5,29.91,SE,135,11.0,13.0,88,0.00,,,0.01,meteohub,2013-02-08 00:17:00,
2013-02-07 19:22:00,70.9,67.5,29.91,North,0,7.0,13.0,89,0.00,,,0.01,meteohub,2013-02-08 00:22:00,
2013-02-07 19:27:00,70.5,67.5,29.91,NE,45,4.0,13.0,90,0.01,,,0.02,meteohub,2013-02-08 00:27:00,
2013-02-07 19:32:00,70.2,67.5,29.92,East,90,4.0,11.0,91,0.02,,,0.04,meteohub,2013-02-08 00:32:00,
2013-02-07 19:37:00,70.0,67.5,29.91,SE,135,8.0,11.0,92,0.02,,,0.04,meteohub,2013-02-08 00:37:00,
2013-02-07 19:42:00,70.0,68.2,29.92,East,90,8.0,11.0,94,0.04,,,0.05,meteohub,2013-02-08 00:42:00,
2013-02-07 19:47:00,70.0,68.2,29.92,SE,135,9.0,11.0,94,0.04,,,0.05,meteohub,2013-02-08 00:47:00,
2013-02-07 19:52:00,70.0,68.2,29.93,East,90,4.0,10.0,94,0.05,,,0.06,meteohub,2013-02-08 00:52:00,
2013-02-07 19:57:00,70.0,68.2,29.94,East,90,10.0,11.0,94,0.05,,,0.06,meteohub,2013-02-08 00:57:00,
2013-02-07 20:02:00,70.0,68.2,29.94,East,90,10.0,11.0,94,0.05,,,0.06,meteohub,2013-02-08 01:02:00,
2013-02-07 20:07:00,70.0,68.5,29.95,North,0,7.0,11.0,95,0.06,,,0.07,meteohub,2013-02-08 01:07:00,
2013-02-07 20:12:00,69.8,68.0,29.95,SE,135,8.0,10.0,94,0.06,,,0.07,meteohub,2013-02-08 01:12:00,
2013-02-07 20:18:00,69.6,68.2,29.95,East,90,5.0,10.0,95,0.06,,,0.07,meteohub,2013-02-08 01:18:00,
2013-02-07 20:23:00,69.4,67.6,29.94,SE,135,4.0,10.0,94,0.07,,,0.08,meteohub,2013-02-08 01:23:00,
2013-02-07 20:28:00,69.3,67.5,29.94,NE,45,4.0,9.0,94,0.06,,,0.08,meteohub,2013-02-08 01:28:00,
2013-02-07 20:33:00,68.9,67.1,29.93,NE,45,4.0,8.0,94,0.06,,,0.09,meteohub,2013-02-08 01:33:00,
2013-02-07 20:38:00,68.7,67.3,29.94,North,0,4.0,8.0,95,0.06,,,0.09,meteohub,2013-02-08 01:38:00,
2013-02-07 20:43:00,68.5,67.1,29.94,NE,45,3.0,7.0,95,0.05,,,0.09,meteohub,2013-02-08 01:43:00,
2013-02-07 20:48:00,68.5,67.3,29.95,East,90,5.0,5.0,96,0.05,,,0.11,meteohub,2013-02-08 01:48:00,
2013-02-07 20:53:00,68.5,67.6,29.94,NE,45,4.0,5.0,97,0.06,,,0.12,meteohub,2013-02-08 01:53:00,
2013-02-07 20:59:00,68.5,67.6,29.95,East,90,4.0,5.0,97,0.06,,,0.12,meteohub,2013-02-08 01:59:00,
2013-02-07 21:04:00,68.5,67.6,29.95,East,90,4.0,5.0,97,0.06,,,0.12,meteohub,2013-02-08 02:04:00,
2013-02-07 21:09:00,68.7,67.8,29.94,SE,135,2.0,4.0,97,0.05,,,0.12,meteohub,2013-02-08 02:09:00,
2013-02-07 21:14:00,68.9,68.0,29.94,South,180,6.0,8.0,97,0.05,,,0.12,meteohub,2013-02-08 02:14:00,
2013-02-07 21:19:00,69.1,67.8,29.94,NE,45,4.0,8.0,96,0.05,,,0.12,meteohub,2013-02-08 02:19:00,
2013-02-07 21:24:00,69.1,67.6,29.94,NE,45,4.0,8.0,95,0.04,,,0.12,meteohub,2013-02-08 02:24:00,
2013-02-07 21:29:00,69.1,67.3,29.94,East,90,3.0,8.0,94,0.04,,,0.12,meteohub,2013-02-08 02:29:00,
2013-02-07 21:34:00,69.1,67.3,29.93,East,90,2.0,8.0,94,0.02,,,0.12,meteohub,2013-02-08 02:34:00,
2013-02-07 21:39:00,68.9,67.5,29.94,NE,45,3.0,8.0,95,0.02,,,0.12,meteohub,2013-02-08 02:39:00,
2013-02-07 21:45:00,68.9,67.5,29.94,SE,135,8.0,9.0,95,0.02,,,0.12,meteohub,2013-02-08 02:45:00,
2013-02-07 21:50:00,68.9,67.1,29.94,NE,45,4.0,9.0,94,0.01,,,0.12,meteohub,2013-02-08 02:50:00,
2013-02-07 21:55:00,68.9,67.1,29.94,East,90,3.0,8.0,94,0.00,,,0.12,meteohub,2013-02-08 02:55:00,
2013-02-07 22:00:00,69.1,67.3,29.94,East,90,3.0,8.0,94,0.00,,,0.12,meteohub,2013-02-08 03:00:00,
2013-02-07 22:05:00,69.1,67.3,29.94,SE,135,4.0,8.0,94,0.00,,,0.12,meteohub,2013-02-08 03:05:00,
2013-02-07 22:10:00,69.3,67.5,29.94,NE,45,8.0,9.0,94,0.00,,,0.12,meteohub,2013-02-08 03:10:00,
2013-02-07 22:16:00,69.3,67.5,29.94,East,90,4.0,9.0,94,0.00,,,0.12,meteohub,2013-02-08 03:16:00,
2013-02-07 22:21:00,69.3,67.5,29.94,East,90,4.0,9.0,94,0.00,,,0.12,meteohub,2013-02-08 03:21:00,
2013-02-07 22:26:00,69.4,67.3,29.94,East,90,8.0,8.0,93,0.00,,,0.12,meteohub,2013-02-08 03:26:00,
2013-02-07 22:31:00,69.6,67.5,29.95,East,90,6.0,8.0,93,0.00,,,0.12,meteohub,2013-02-08 03:31:00,
2013-02-07 22:36:00,69.8,67.6,29.95,East,90,6.0,9.0,93,0.00,,,0.12,meteohub,2013-02-08 03:36:00,
2013-02-07 22:41:00,69.8,67.6,29.95,SW,225,4.0,11.0,93,0.00,,,0.12,meteohub,2013-02-08 03:41:00,
2013-02-07 22:46:00,69.8,67.6,29.94,East,90,6.0,11.0,93,0.00,,,0.12,meteohub,2013-02-08 03:46:00,
2013-02-07 22:51:00,69.8,67.6,29.94,East,90,8.0,11.0,93,0.00,,,0.12,meteohub,2013-02-08 03:51:00,
2013-02-07 22:56:00,70.0,67.5,29.94,NE,45,7.0,8.0,92,0.00,,,0.12,meteohub,2013-02-08 03:56:00,
2013-02-07 23:01:00,70.0,67.5,29.94,East,90,4.0,10.0,92,0.00,,,0.12,meteohub,2013-02-08 04:01:00,
2013-02-07 23:06:00,70.2,67.6,29.94,SE,135,8.0,10.0,92,0.00,,,0.12,meteohub,2013-02-08 04:06:00,
2013-02-07 23:11:00,70.2,67.6,29.93,East,90,5.0,9.0,92,0.00,,,0.12,meteohub,2013-02-08 04:11:00,
2013-02-07 23:16:00,70.2,67.6,29.94,SE,135,4.0,9.0,92,0.00,,,0.12,meteohub,2013-02-08 04:16:00,
2013-02-07 23:22:00,70.3,67.8,29.94,SE,135,8.0,15.0,92,0.00,,,0.12,meteohub,2013-02-08 04:22:00,
2013-02-07 23:27:00,70.3,67.8,29.94,East,90,4.0,15.0,92,0.00,,,0.12,meteohub,2013-02-08 04:27:00,
2013-02-07 23:32:00,70.2,67.6,29.94,East,90,6.0,15.0,92,0.00,,,0.12,meteohub,2013-02-08 04:32:00,
2013-02-07 23:37:00,70.2,67.6,29.94,SW,225,5.0,13.0,92,0.00,,,0.12,meteohub,2013-02-08 04:37:00,
2013-02-07 23:42:00,70.0,67.8,29.93,East,90,5.0,13.0,93,0.00,,,0.12,meteohub,2013-02-08 04:42:00,
2013-02-07 23:47:00,70.0,67.8,29.94,East,90,3.0,9.0,93,0.00,,,0.12,meteohub,2013-02-08 04:47:00,
2013-02-07 23:52:00,69.8,67.6,29.93,ESE,113,6.0,10.0,93,0.00,,,0.12,meteohub,2013-02-08 04:52:00,
2013-02-07 23:57:00,70.0,67.8,29.94,SE,135,4.0,10.0,93,0.00,,,0.12,meteohub,2013-02-08 04:57:00,